Find Starlink 36647

NORAD ID: 67824 Int'l Des: 2026-033 Owner: SPXS Country: US Constellation: starlink operational
LEOCIRCULAR

Live Position

Loading 3D Globe...

About Starlink 36647

Description loading...

Upcoming Passes

Passes for default location (London). Set your location on the main map for personalized predictions.

Altitude History

Loading altitude history...

Two-Line Element Set

1 67824U 26033D 26112.15953925 .00013041 00000-0 48225-3 0 9995
2 67824 43.0023 21.4313 0001458 265.7843 94.2842 15.27601730 11326
Epoch: Apr 22, 2026 • Age: 13 hours

Current Status

Altitude 483.6 km
Velocity 7.63 km/s
Sub-Earth Point 26.03°N, 61.28°E
Launch Date Feb 16, 2026
Age 0.1 years
Type internet

Technical Details

Classification Payload
Mass 575.00 kg
Dry Mass 530.00 kg
Total Mass 575.00 kg
Length 0.30 m
Diameter 4.10 m
Span 29.00 m
Shape Box + pan
Manufacturer SPXS
Bus Type Starlink V2MO
Phase Status In Orbit
Owner/State SPXS/US

Most Searched